Location: Newark
(44.9486°N, 4.8961°E)
Time: 12:41:47
(UTC+00:00)

ISS - Pass Details

Date: 26 July 2019
Orbit: 410 x 420 km, 51.6° (Epoch: 21 August)

Event Time Altitude Azimuth Distance (km) Brightness Sun altitude
Rises 22:14:55 0° 300° (WNW) 2,371 0.9 -22.4°
Reaches altitude 10° 22:17:04 10° 305° (NW) 1,503 -0.2 -22.5°
Enters shadow 22:19:58 50° 352° (N) 541 -2.9 -22.7°
